Previsão horária em Aligudarz

Hoje, 28 Janeiro, Quinta-feira

Tempo Temperatura Precipitação Vento Pressão Humidade
00:00 +1°C° 0 mm 2 m/s 591 mmHg 34%
01:00 +1°C° 0 mm 2 m/s 591 mmHg 34%
02:00 +2°C° 0 mm 1 m/s 590 mmHg 35%
03:00 +1°C° 0 mm 2 m/s 590 mmHg 35%
04:00 +1°C° 0 mm 2 m/s 590 mmHg 35%
05:00 +1°C° 0 mm 2 m/s 590 mmHg 34%
06:00 +1°C° 0 mm 2 m/s 590 mmHg 33%
07:00 +2°C° 0 mm 2 m/s 591 mmHg 34%
08:00 +3°C° 0 mm 2 m/s 591 mmHg 34%
09:00 +4°C° 0 mm 2 m/s 592 mmHg 35%
10:00 +5°C° 0 mm 2 m/s 593 mmHg 36%
11:00 +6°C° 0 mm 2 m/s 593 mmHg 36%
12:00 +7°C° 0 mm 2 m/s 593 mmHg 36%
13:00 +7°C° 0 mm 2 m/s 593 mmHg 36%
14:00 +7°C° 0 mm 3 m/s 592 mmHg 36%
15:00 +8°C° 0 mm 3 m/s 592 mmHg 37%
16:00 +5°C° 0 mm 3 m/s 591 mmHg 39%
17:00 +3°C° 0 mm 3 m/s 591 mmHg 41%
18:00 +2°C° 0 mm 3 m/s 590 mmHg 43%
19:00 +1°C° 0 mm 3 m/s 590 mmHg 44%
20:00 +1°C° 0 mm 3 m/s 590 mmHg 45%
21:00 0°C° 0 mm 3 m/s 590 mmHg 46%
22:00 +1°C° 0 mm 2 m/s 590 mmHg 48%
23:00 +1°C° 0 mm 2 m/s 590 mmHg 50%

Amanhã, 29 Janeiro, Sexta-feira

Tempo Temperatura Precipitação Vento Pressão Humidade
00:00 +1°C° 0 mm 2 m/s 590 mmHg 52%
01:00 -1°C° 0 mm 2 m/s 590 mmHg 54%
02:00 -1°C° 0 mm 2 m/s 589 mmHg 55%
03:00 -1°C° 0 mm 2 m/s 589 mmHg 56%
04:00 -1°C° 0 mm 2 m/s 589 mmHg 59%
05:00 -1°C° 0 mm 2 m/s 589 mmHg 63%
06:00 -2°C° 0 mm 2 m/s 590 mmHg 66%
07:00 -1°C° 0.1 mm 2 m/s 590 mmHg 68%
08:00 +1°C° 0.1 mm 2 m/s 590 mmHg 71%
09:00 +2°C° 0.1 mm 2 m/s 591 mmHg 74%
10:00 +2°C° 0.6 mm 2 m/s 591 mmHg 79%
11:00 +3°C° 0.6 mm 1 m/s 590 mmHg 84%
12:00 +3°C° 0.6 mm 1 m/s 590 mmHg 89%
13:00 +4°C° 0.8 mm 1 m/s 590 mmHg 88%
14:00 +3°C° 0.8 mm 2 m/s 589 mmHg 88%
15:00 +3°C° 0.8 mm 2 m/s 589 mmHg 87%
16:00 +2°C° 0.4 mm 2 m/s 589 mmHg 90%
17:00 +2°C° 0.4 mm 2 m/s 588 mmHg 92%
18:00 +1°C° 0.4 mm 2 m/s 588 mmHg 95%
19:00 +1°C° 0.7 mm 2 m/s 588 mmHg 96%
20:00 +1°C° 0.7 mm 2 m/s 587 mmHg 96%
21:00 +1°C° 0.7 mm 2 m/s 587 mmHg 97%
22:00 +1°C° 1.5 mm 2 m/s 587 mmHg 97%
23:00 0°C° 1.5 mm 3 m/s 587 mmHg 97%

Depois de amanhã, 30 Janeiro, Sábado

Tempo Temperatura Precipitação Vento Pressão Humidade
00:00 0°C° 1.5 mm 3 m/s 587 mmHg 97%
01:00 0°C° 0.3 mm 3 m/s 586 mmHg 96%
02:00 0°C° 0.3 mm 3 m/s 586 mmHg 94%
03:00 0°C° 0.3 mm 3 m/s 586 mmHg 93%
04:00 -1°C° 0 mm 3 m/s 586 mmHg 92%
05:00 -1°C° 0 mm 3 m/s 586 mmHg 91%
06:00 -2°C° 0 mm 2 m/s 586 mmHg 91%
07:00 -1°C° 0 mm 3 m/s 586 mmHg 87%
08:00 -2°C° 0 mm 4 m/s 586 mmHg 83%
09:00 -1°C° 0 mm 5 m/s 587 mmHg 79%
10:00 -1°C° 0 mm 5 m/s 587 mmHg 75%
11:00 -1°C° 0 mm 6 m/s 587 mmHg 70%
12:00 0°C° 0 mm 7 m/s 587 mmHg 66%
13:00 -1°C° 0 mm 7 m/s 587 mmHg 66%
14:00 -1°C° 0 mm 7 m/s 587 mmHg 66%
15:00 -1°C° 0 mm 7 m/s 586 mmHg 66%
16:00 -3°C° 0 mm 6 m/s 587 mmHg 69%
17:00 -4°C° 0 mm 5 m/s 587 mmHg 73%
18:00 -5°C° 0 mm 4 m/s 587 mmHg 77%
19:00 -5°C° 0 mm 4 m/s 587 mmHg 79%
20:00 -6°C° 0 mm 3 m/s 587 mmHg 81%
21:00 -6°C° 0 mm 3 m/s 588 mmHg 82%
22:00 -7°C° 0 mm 3 m/s 588 mmHg 83%
23:00 -7°C° 0 mm 3 m/s 588 mmHg 83%

31 Janeiro, Domingo

Tempo Temperatura Precipitação Vento Pressão Humidade
00:00 -7°C° 0 mm 3 m/s 588 mmHg 83%
01:00 -6°C° 0 mm 2 m/s 588 mmHg 80%
02:00 -6°C° 0 mm 2 m/s 588 mmHg 77%
03:00 -7°C° 0 mm 2 m/s 588 mmHg 74%
04:00 -7°C° 0 mm 2 m/s 588 mmHg 71%
05:00 -6°C° 0 mm 2 m/s 588 mmHg 67%
06:00 -6°C° 0 mm 2 m/s 588 mmHg 64%
07:00 -5°C° 0 mm 2 m/s 589 mmHg 59%
08:00 -4°C° 0 mm 2 m/s 589 mmHg 55%
09:00 -3°C° 0 mm 2 m/s 590 mmHg 50%
10:00 -2°C° 0 mm 2 m/s 590 mmHg 49%
11:00 +1°C° 0 mm 2 m/s 590 mmHg 48%
12:00 +2°C° 0 mm 2 m/s 590 mmHg 47%
13:00 +2°C° 0 mm 2 m/s 590 mmHg 48%
14:00 +3°C° 0 mm 2 m/s 590 mmHg 49%
15:00 +3°C° 0 mm 2 m/s 590 mmHg 50%
16:00 +1°C° 0 mm 2 m/s 589 mmHg 53%
17:00 -1°C° 0 mm 2 m/s 589 mmHg 56%
18:00 -3°C° 0 mm 2 m/s 589 mmHg 59%
19:00 -3°C° 0 mm 2 m/s 589 mmHg 57%
20:00 -3°C° 0 mm 2 m/s 589 mmHg 55%
21:00 -4°C° 0 mm 2 m/s 590 mmHg 53%
22:00 -4°C° 0 mm 2 m/s 590 mmHg 51%
23:00 -4°C° 0 mm 2 m/s 590 mmHg 50%

1 Fevereiro, Segunda-feira

Tempo Temperatura Precipitação Vento Pressão Humidade
00:00 -4°C° 0 mm 2 m/s 590 mmHg 48%
01:00 -4°C° 0 mm 2 m/s 590 mmHg 47%
02:00 -2°C° 0 mm 1 m/s 590 mmHg 46%
03:00 -2°C° 0 mm 1 m/s 590 mmHg 44%
04:00 -2°C° 0 mm 1 m/s 590 mmHg 44%
05:00 -2°C° 0 mm 1 m/s 590 mmHg 43%
06:00 -2°C° 0 mm 1 m/s 591 mmHg 42%
07:00 -1°C° 0 mm 1 m/s 591 mmHg 41%
08:00 +1°C° 0 mm 1 m/s 592 mmHg 40%
09:00 +2°C° 0 mm 1 m/s 593 mmHg 39%
10:00 +3°C° 0 mm 1 m/s 593 mmHg 42%
11:00 +3°C° 0 mm 0 m/s 594 mmHg 44%
12:00 +5°C° 0 mm 0 m/s 594 mmHg 47%
13:00 +5°C° 0 mm 0 m/s 594 mmHg 46%
14:00 +6°C° 0 mm 1 m/s 594 mmHg 46%
15:00 +6°C° 0 mm 1 m/s 593 mmHg 45%
16:00 +5°C° 0 mm 1 m/s 593 mmHg 48%
17:00 +3°C° 0 mm 1 m/s 592 mmHg 51%
18:00 +1°C° 0 mm 1 m/s 591 mmHg 54%
19:00 +1°C° 0 mm 1 m/s 592 mmHg 52%
20:00 +1°C° 0 mm 1 m/s 592 mmHg 50%
21:00 +1°C° 0 mm 1 m/s 592 mmHg 47%
22:00 +1°C° 0 mm 1 m/s 592 mmHg 45%
23:00 +1°C° 0 mm 1 m/s 592 mmHg 42%

2 Fevereiro, Terça-feira

Tempo Temperatura Precipitação Vento Pressão Humidade
00:00 0°C° 0 mm 1 m/s 592 mmHg 40%
01:00 0°C° 0 mm 1 m/s 591 mmHg 38%
02:00 0°C° 0 mm 1 m/s 591 mmHg 36%
03:00 0°C° 0 mm 1 m/s 591 mmHg 34%
04:00 0°C° 0 mm 1 m/s 591 mmHg 34%
05:00 0°C° 0 mm 1 m/s 591 mmHg 33%
06:00 0°C° 0 mm 1 m/s 591 mmHg 33%
07:00 +1°C° 0 mm 1 m/s 592 mmHg 32%
08:00 +3°C° 0 mm 1 m/s 593 mmHg 31%
09:00 +4°C° 0 mm 1 m/s 594 mmHg 30%
10:00 +5°C° 0 mm 1 m/s 594 mmHg 32%
11:00 +7°C° 0 mm 1 m/s 594 mmHg 35%
12:00 +8°C° 0 mm 1 m/s 595 mmHg 37%
13:00 +8°C° 0 mm 1 m/s 594 mmHg 37%
14:00 +8°C° 0 mm 1 m/s 594 mmHg 37%
15:00 +8°C° 0 mm 1 m/s 594 mmHg 37%
16:00 +6°C° 0 mm 1 m/s 593 mmHg 40%
17:00 +5°C° 0 mm 1 m/s 592 mmHg 42%
18:00 +3°C° 0 mm 1 m/s 591 mmHg 44%
19:00 +2°C° 0 mm 1 m/s 591 mmHg 42%
20:00 +2°C° 0 mm 1 m/s 591 mmHg 40%
21:00 +2°C° 0 mm 1 m/s 591 mmHg 38%
22:00 +2°C° 0 mm 1 m/s 591 mmHg 36%
23:00 +2°C° 0 mm 1 m/s 591 mmHg 35%
Mostrar mais

Necessitamos do seu Consentimento

A Meteoprog e os seus Fornecedores de Serviços podem armazenar e aceder a dados pessoais como cookies, identificadores do dispositivo ou outras tecnologias semelhantes existentes no seu dispositivo e processar estes dados para personalizar conteúdos e anúncios, assim como funcionalidades nas redes sociais e análise de tráfego.

  • Armazenar e/ou aceder a informações no seu dispositivo

    Os cookies, identificadores do dispositivo ou outras informações podem ser armazenados ou acedidos no seu dispositivo, para os fins acima indicados.

  • Anúncios e conteúdos personalizados, medição de anúncios e conteúdos, dados sobre o público-alvo e desenvolvimento de produtos

    Os anúncios e os conteúdos podem ser personalizados com base num perfil. Podem ser adicionados dados adicionais para uma maior personalização dos anúncios e dos conteúdos. A eficácia dos anúncios e dos conteúdos pode ser medida. Podem ser obtidas informações sobre o público que visualizou os anúncios e os conteúdos. Estes dados podem ser usados para desenvolver ou melhorar sistemas, softwares ou a experiência do utilizador.

Ao clicar em "Eu concordo”, permitirá o uso de cookies, identificadores do dispositivo e web beacons mencionados ou outras tecnologias semelhantes. As configurações do navegador do seu dispositivo podem ser alteradas.

Para certos fins, podem ser invocados interesses legítimos ao invés de consentimento. Pode ler mais informação sobre este assunto na nossa Política de Privacidade e Cookies.